CCA1692 ZUUU-ZULS

Flight info

Callsign CCA1692
Flight time 1h 51m
Altitude 36100
Route MUMGO9W MUMGO B213 LXA
Aircraft A333/H-SDE3GHIJ2J3J5M1RVWXY/LB2D1

Departure

Time 2026-04-23 11:26
Airport Chengdu Shuangliu International Airport (ZUUU)

Arrival

Time 2026-04-23 13:18
Airport Lhasa Gonggar International Airport (ZULS)
Time Latitude Longitude Altitude Speed Heading
2026-04-23 10:58 30.56814 103.95342 1645 ft 0 kts 21°
2026-04-23 11:10 30.56805 103.95338 1645 ft 2 kts 21°
2026-04-23 11:10 30.56792 103.95332 1645 ft 2 kts 21°
2026-04-23 11:11 30.56779 103.95326 1645 ft 2 kts 21°
2026-04-23 11:11 30.56766 103.95321 1645 ft 2 kts 21°
2026-04-23 11:11 30.56753 103.95315 1645 ft 2 kts 21°
2026-04-23 11:11 30.56741 103.95309 1645 ft 2 kts 21°
2026-04-23 11:12 30.56729 103.95304 1645 ft 2 kts 21°
2026-04-23 11:12 30.56715 103.95298 1645 ft 2 kts 21°
2026-04-23 11:12 30.56704 103.95293 1645 ft 2 kts 16°
2026-04-23 11:12 30.56693 103.95291 1645 ft 2 kts 355°
2026-04-23 11:13 30.56679 103.95294 1645 ft 2 kts 335°
2026-04-23 11:13 30.56664 103.95308 1645 ft 2 kts 307°
2026-04-23 11:13 30.56658 103.95318 1645 ft 0 kts 292°
2026-04-23 11:13 30.56656 103.95322 1645 ft 0 kts 291°
2026-04-23 11:14 30.56657 103.95322 1645 ft 0 kts 291°
2026-04-23 11:16 30.56659 103.95313 1645 ft 1 kts 291°
2026-04-23 11:16 30.56666 103.95293 1645 ft 3 kts 291°
2026-04-23 11:16 30.56678 103.95260 1645 ft 5 kts 292°
2026-04-23 11:16 30.56692 103.95220 1645 ft 6 kts 292°
2026-04-23 11:17 30.56707 103.95179 1645 ft 7 kts 292°
2026-04-23 11:17 30.56725 103.95129 1645 ft 8 kts 292°
2026-04-23 11:17 30.56745 103.95074 1645 ft 9 kts 292°
2026-04-23 11:17 30.56767 103.95011 1645 ft 10 kts 292°
2026-04-23 11:18 30.56803 103.94907 1645 ft 8 kts 292°
2026-04-23 11:18 30.56807 103.94898 1645 ft 0 kts 292°
2026-04-23 11:18 30.56811 103.94886 1645 ft 2 kts 292°
2026-04-23 11:18 30.56819 103.94862 1645 ft 4 kts 291°
2026-04-23 11:19 30.56831 103.94826 1645 ft 5 kts 291°
2026-04-23 11:19 30.56848 103.94776 1645 ft 7 kts 291°
2026-04-23 11:19 30.56868 103.94717 1645 ft 8 kts 292°
2026-04-23 11:19 30.56890 103.94655 1645 ft 9 kts 291°
2026-04-23 11:20 30.56899 103.94623 1645 ft 0 kts 284°
2026-04-23 11:20 30.56899 103.94616 1645 ft 1 kts 268°
2026-04-23 11:20 30.56895 103.94601 1645 ft 2 kts 247°
2026-04-23 11:20 30.56885 103.94584 1645 ft 3 kts 227°
2026-04-23 11:21 30.56857 103.94563 1645 ft 6 kts 210°
2026-04-23 11:21 30.56812 103.94540 1645 ft 8 kts 202°
2026-04-23 11:21 30.56760 103.94514 1645 ft 11 kts 202°
2026-04-23 11:21 30.56663 103.94469 1645 ft 13 kts 200°
2026-04-23 11:22 30.56572 103.94428 1645 ft 14 kts 201°
2026-04-23 11:22 30.56477 103.94384 1645 ft 14 kts 202°
2026-04-23 11:22 30.56383 103.94341 1645 ft 14 kts 201°
2026-04-23 11:22 30.56288 103.94297 1645 ft 11 kts 207°
2026-04-23 11:23 30.56271 103.94247 1645 ft 8 kts 285°
2026-04-23 11:23 30.56296 103.94178 1645 ft 9 kts 291°
2026-04-23 11:23 30.56311 103.94134 1645 ft 5 kts 291°
2026-04-23 11:23 30.56312 103.94132 1645 ft 0 kts 291°
2026-04-23 11:24 30.56314 103.94126 1645 ft 1 kts 291°
2026-04-23 11:24 30.56320 103.94108 1645 ft 3 kts 291°
2026-04-23 11:24 30.56333 103.94070 1645 ft 6 kts 292°
2026-04-23 11:25 30.56350 103.94033 1645 ft 5 kts 319°
2026-04-23 11:25 30.56406 103.94029 1645 ft 8 kts 15°
2026-04-23 11:25 30.56444 103.94045 1645 ft 3 kts 21°
2026-04-23 11:25 30.56672 103.94150 1645 ft 73 kts 21°
2026-04-23 11:26 30.57381 103.94479 1646 ft 142 kts 20°
2026-04-23 11:26 30.58467 103.94984 1674 ft 193 kts 21°
2026-04-23 11:26 30.59727 103.95572 2386 ft 194 kts 19°
2026-04-23 11:26 30.61021 103.95763 3246 ft 189 kts 352°
2026-04-23 11:27 30.62288 103.95342 3885 ft 197 kts 336°
2026-04-23 11:27 30.63570 103.94647 4408 ft 213 kts 333°
2026-04-23 11:27 30.64955 103.93835 4919 ft 232 kts 332°
2026-04-23 11:27 30.66425 103.92966 5436 ft 250 kts 333°
2026-04-23 11:28 30.68039 103.92019 5982 ft 269 kts 333°
2026-04-23 11:28 30.69776 103.91009 6603 ft 283 kts 333°
2026-04-23 11:28 30.71542 103.89986 7256 ft 288 kts 333°
2026-04-23 11:28 30.73329 103.88902 7961 ft 291 kts 326°
2026-04-23 11:29 30.74684 103.87223 8617 ft 293 kts 296°
2026-04-23 11:29 30.75201 103.84969 9354 ft 292 kts 269°
2026-04-23 11:29 30.74781 103.82694 10029 ft 292 kts 242°
2026-04-23 11:29 30.73579 103.80769 10576 ft 299 kts 228°
2026-04-23 11:30 30.72159 103.78921 10886 ft 316 kts 228°
2026-04-23 11:30 30.70664 103.76965 11167 ft 333 kts 229°
2026-04-23 11:30 30.69122 103.74909 11726 ft 340 kts 229°
2026-04-23 11:30 30.67569 103.72819 12430 ft 343 kts 229°
2026-04-23 11:31 30.66074 103.70687 13142 ft 344 kts 237°
2026-04-23 11:31 30.65210 103.68116 13765 ft 349 kts 261°
2026-04-23 11:31 30.65254 103.65321 14456 ft 351 kts 282°
2026-04-23 11:31 30.65913 103.62603 15171 ft 353 kts 287°
2026-04-23 11:32 30.66607 103.59866 15880 ft 354 kts 287°
2026-04-23 11:32 30.67293 103.57126 16660 ft 355 kts 287°
2026-04-23 11:32 30.67972 103.54378 17300 ft 357 kts 287°
2026-04-23 11:32 30.68643 103.51642 18015 ft 358 kts 287°
2026-04-23 11:33 30.69322 103.48861 18737 ft 359 kts 287°
2026-04-23 11:33 30.69998 103.46084 19437 ft 360 kts 287°
2026-04-23 11:33 30.70679 103.43273 20163 ft 361 kts 287°
2026-04-23 11:33 30.71357 103.40468 20826 ft 362 kts 288°
2026-04-23 11:34 30.72029 103.37683 21469 ft 364 kts 287°
2026-04-23 11:34 30.72713 103.34843 22125 ft 365 kts 287°
2026-04-23 11:34 30.73387 103.32037 22708 ft 367 kts 287°
2026-04-23 11:34 30.74071 103.29184 23323 ft 368 kts 287°
2026-04-23 11:35 30.74763 103.26311 23912 ft 370 kts 287°
2026-04-23 11:35 30.75458 103.23405 24429 ft 373 kts 287°
2026-04-23 11:35 30.76147 103.20528 24933 ft 376 kts 286°
2026-04-23 11:35 30.76848 103.17588 25464 ft 377 kts 287°
2026-04-23 11:36 30.77549 103.14655 25969 ft 379 kts 286°
2026-04-23 11:36 30.78251 103.11701 26398 ft 382 kts 287°
2026-04-23 11:36 30.78965 103.08704 26844 ft 385 kts 286°
2026-04-23 11:36 30.79667 103.05693 27322 ft 387 kts 284°
2026-04-23 11:37 30.80189 103.02615 27732 ft 390 kts 280°
2026-04-23 11:37 30.80477 102.99475 28115 ft 394 kts 275°
2026-04-23 11:37 30.80530 102.96294 28532 ft 397 kts 272°
2026-04-23 11:37 30.80486 102.93091 28923 ft 399 kts 271°
2026-04-23 11:38 30.80433 102.89893 29320 ft 401 kts 271°
2026-04-23 11:38 30.80371 102.86620 29713 ft 403 kts 271°
2026-04-23 11:38 30.80312 102.83363 30057 ft 406 kts 271°
2026-04-23 11:38 30.80250 102.80096 30397 ft 408 kts 271°
2026-04-23 11:39 30.80185 102.76799 30723 ft 411 kts 271°
2026-04-23 11:39 30.80123 102.73447 31047 ft 413 kts 271°
2026-04-23 11:39 30.80059 102.70111 31383 ft 415 kts 271°
2026-04-23 11:39 30.79994 102.66782 31671 ft 418 kts 271°
2026-04-23 11:40 30.79929 102.63419 31965 ft 420 kts 271°
2026-04-23 11:40 30.79863 102.60024 32262 ft 422 kts 271°
2026-04-23 11:40 30.79798 102.56585 32589 ft 423 kts 272°
2026-04-23 11:40 30.79729 102.53181 32994 ft 423 kts 272°
2026-04-23 11:41 30.79660 102.49815 33430 ft 421 kts 272°
2026-04-23 11:41 30.79590 102.46405 33827 ft 420 kts 272°
2026-04-23 11:41 30.79518 102.43036 34201 ft 420 kts 272°
2026-04-23 11:41 30.79446 102.39640 34508 ft 419 kts 272°
2026-04-23 11:42 30.79373 102.36244 34815 ft 418 kts 272°
2026-04-23 11:42 30.79303 102.32909 35127 ft 417 kts 272°
2026-04-23 11:42 30.79227 102.29547 35389 ft 418 kts 272°
2026-04-23 11:42 30.79152 102.26144 35628 ft 419 kts 272°
2026-04-23 11:43 30.79075 102.22775 35865 ft 420 kts 272°
2026-04-23 11:43 30.78998 102.19428 36172 ft 420 kts 272°
2026-04-23 11:43 30.78917 102.16022 36414 ft 421 kts 272°
2026-04-23 11:44 30.78757 102.09197 36478 ft 423 kts 272°
2026-04-23 11:44 30.78591 102.02377 36480 ft 422 kts 272°
2026-04-23 11:45 30.78420 101.95588 36468 ft 423 kts 272°
2026-04-23 11:45 30.78479 101.88771 36480 ft 425 kts 277°
2026-04-23 11:46 30.79014 101.81825 36493 ft 435 kts 279°
2026-04-23 11:46 30.79599 101.74803 36522 ft 440 kts 279°
2026-04-23 11:47 30.80181 101.67726 36545 ft 441 kts 279°
2026-04-23 11:47 30.80763 101.60659 36567 ft 441 kts 278°
2026-04-23 11:48 30.81341 101.53603 36579 ft 440 kts 279°
2026-04-23 11:48 30.81915 101.46506 36587 ft 439 kts 279°
2026-04-23 11:49 30.82479 101.39492 36594 ft 440 kts 279°
2026-04-23 11:49 30.83045 101.32412 36600 ft 441 kts 279°
2026-04-23 11:50 30.83609 101.25322 36594 ft 440 kts 278°
2026-04-23 11:50 30.84170 101.18250 36599 ft 441 kts 278°
2026-04-23 11:51 30.84727 101.11147 36600 ft 441 kts 278°
2026-04-23 11:51 30.85274 101.04076 36598 ft 441 kts 279°
2026-04-23 11:52 30.85819 100.97000 36593 ft 441 kts 279°
2026-04-23 11:52 30.86365 100.89882 36610 ft 441 kts 279°
2026-04-23 11:53 30.86904 100.82795 36622 ft 443 kts 279°
2026-04-23 11:53 30.87440 100.75697 36624 ft 442 kts 279°
2026-04-23 11:54 30.87970 100.68607 36648 ft 443 kts 278°
2026-04-23 11:54 30.88500 100.61500 36659 ft 443 kts 279°
2026-04-23 11:55 30.89025 100.54351 36649 ft 444 kts 279°
2026-04-23 11:55 30.89550 100.47210 36668 ft 443 kts 279°
2026-04-23 11:56 30.90065 100.40105 36680 ft 444 kts 279°
2026-04-23 11:56 30.90581 100.32968 36695 ft 445 kts 279°
2026-04-23 11:57 30.91097 100.25762 36691 ft 445 kts 278°
2026-04-23 11:57 30.91599 100.18641 36702 ft 445 kts 278°
2026-04-23 11:58 30.92104 100.11458 36717 ft 445 kts 278°
2026-04-23 11:58 30.92602 100.04305 36728 ft 446 kts 279°
2026-04-23 11:59 30.93121 99.97119 36719 ft 445 kts 279°
2026-04-23 11:59 30.93700 99.89960 36721 ft 445 kts 280°
2026-04-23 12:00 30.94274 99.82824 36722 ft 445 kts 279°
2026-04-23 12:00 30.94846 99.75650 36715 ft 444 kts 280°
2026-04-23 12:01 30.95405 99.68538 36710 ft 445 kts 279°
2026-04-23 12:01 30.95945 99.61374 36714 ft 445 kts 279°
2026-04-23 12:02 30.96491 99.54209 36703 ft 445 kts 280°
2026-04-23 12:02 30.97037 99.47080 36706 ft 445 kts 280°
2026-04-23 12:03 30.97580 99.39912 36702 ft 444 kts 281°
2026-04-23 12:03 30.98116 99.32780 36711 ft 445 kts 280°
2026-04-23 12:04 30.98654 99.25588 36719 ft 444 kts 280°
2026-04-23 12:04 30.99178 99.18473 36721 ft 443 kts 280°
2026-04-23 12:05 30.99701 99.11352 36711 ft 445 kts 280°
2026-04-23 12:05 31.00222 99.04225 36697 ft 445 kts 280°
2026-04-23 12:06 31.00739 98.97072 36693 ft 443 kts 280°
2026-04-23 12:06 31.01507 98.86340 36711 ft 443 kts 281°
2026-04-23 12:07 31.02013 98.79185 37008 ft 445 kts 281°
2026-04-23 12:07 31.02266 98.75605 36829 ft 442 kts 281°
2026-04-23 12:07 31.02512 98.72078 36776 ft 443 kts 281°
2026-04-23 12:08 31.03018 98.64937 36749 ft 441 kts 281°
2026-04-23 12:08 31.03614 98.57849 36734 ft 441 kts 282°
2026-04-23 12:09 31.04213 98.50776 36735 ft 441 kts 282°
2026-04-23 12:09 31.04806 98.43681 36733 ft 440 kts 282°
2026-04-23 12:10 31.05389 98.36601 36739 ft 440 kts 281°
2026-04-23 12:10 31.05964 98.29472 36744 ft 440 kts 281°
2026-04-23 12:11 31.06532 98.22414 36750 ft 440 kts 281°
2026-04-23 12:11 31.07085 98.15443 36757 ft 439 kts 281°
2026-04-23 12:12 31.07656 98.08398 36762 ft 440 kts 281°
2026-04-23 12:12 31.08241 98.01258 36764 ft 441 kts 282°
2026-04-23 12:13 31.08811 97.94177 36765 ft 438 kts 281°
2026-04-23 12:13 31.09376 97.87109 36771 ft 442 kts 281°
2026-04-23 12:14 31.09935 97.80004 36773 ft 442 kts 281°
2026-04-23 12:14 31.10494 97.72873 36779 ft 443 kts 281°
2026-04-23 12:15 31.11052 97.65712 36783 ft 443 kts 282°
2026-04-23 12:15 31.11600 97.58600 36787 ft 442 kts 281°
2026-04-23 12:16 31.12146 97.51469 36783 ft 443 kts 281°
2026-04-23 12:16 31.12604 97.45505 36790 ft 442 kts 281°
2026-04-23 12:17 31.13138 97.38374 36798 ft 444 kts 281°
2026-04-23 12:17 31.13667 97.31242 36800 ft 442 kts 281°
2026-04-23 12:18 31.13992 97.24026 36804 ft 448 kts 277°
2026-04-23 12:18 31.13719 97.16756 36807 ft 454 kts 271°
2026-04-23 12:19 31.12816 97.09424 36818 ft 461 kts 266°
2026-04-23 12:19 31.11353 97.02145 36821 ft 462 kts 263°
2026-04-23 12:20 31.09789 96.94870 36822 ft 464 kts 263°
2026-04-23 12:20 31.08225 96.87599 36818 ft 466 kts 263°
2026-04-23 12:21 31.06645 96.80276 36815 ft 465 kts 262°
2026-04-23 12:21 31.05064 96.72967 36811 ft 468 kts 263°
2026-04-23 12:22 31.03481 96.65669 36819 ft 468 kts 262°
2026-04-23 12:22 31.01881 96.58329 36824 ft 468 kts 262°
2026-04-23 12:23 31.00277 96.50989 36829 ft 469 kts 262°
2026-04-23 12:23 30.98673 96.43665 36817 ft 470 kts 262°
2026-04-23 12:24 30.97096 96.36294 36846 ft 469 kts 263°
2026-04-23 12:24 30.95543 96.28899 36832 ft 471 kts 262°
2026-04-23 12:25 30.94133 96.22213 36833 ft 473 kts 262°
2026-04-23 12:25 30.92563 96.14822 36830 ft 473 kts 261°
2026-04-23 12:26 30.90979 96.07404 36837 ft 472 kts 262°
2026-04-23 12:26 30.89389 95.99979 36847 ft 474 kts 262°
2026-04-23 12:27 30.87795 95.92561 36839 ft 472 kts 262°
2026-04-23 12:27 30.86211 95.85218 36832 ft 473 kts 262°
2026-04-23 12:28 30.84610 95.77814 36862 ft 472 kts 262°
2026-04-23 12:28 30.83025 95.70418 36830 ft 472 kts 262°
2026-04-23 12:29 30.81506 95.63012 36837 ft 472 kts 263°
2026-04-23 12:29 30.79991 95.55610 36848 ft 473 kts 263°
2026-04-23 12:30 30.78454 95.48171 36848 ft 472 kts 263°
2026-04-23 12:30 30.76920 95.40786 36834 ft 472 kts 263°
2026-04-23 12:31 30.75408 95.33527 36837 ft 471 kts 262°
2026-04-23 12:31 30.73858 95.26127 36836 ft 473 kts 262°
2026-04-23 12:32 30.72317 95.18768 36829 ft 472 kts 262°
2026-04-23 12:32 30.70758 95.11362 36819 ft 472 kts 262°
2026-04-23 12:33 30.69194 95.03958 36827 ft 473 kts 263°
2026-04-23 12:33 30.67626 94.96555 36815 ft 471 kts 262°
2026-04-23 12:34 30.66059 94.89167 36840 ft 472 kts 262°
2026-04-23 12:34 30.64491 94.81803 36843 ft 471 kts 262°
2026-04-23 12:35 30.62921 94.74451 36843 ft 472 kts 262°
2026-04-23 12:35 30.61346 94.67096 36862 ft 470 kts 262°
2026-04-23 12:36 30.59756 94.59711 36863 ft 471 kts 262°
2026-04-23 12:36 30.58185 94.52417 36856 ft 469 kts 263°
2026-04-23 12:37 30.56592 94.45049 36876 ft 469 kts 262°
2026-04-23 12:37 30.55005 94.37753 36901 ft 470 kts 262°
2026-04-23 12:38 30.53416 94.30444 36932 ft 470 kts 262°
2026-04-23 12:38 30.51810 94.23087 36940 ft 470 kts 262°
2026-04-23 12:39 30.50242 94.15782 36918 ft 468 kts 262°
2026-04-23 12:39 30.48734 94.08450 36910 ft 471 kts 262°
2026-04-23 12:40 30.47222 94.01150 36896 ft 468 kts 262°
2026-04-23 12:40 30.45691 93.93808 36931 ft 467 kts 262°
2026-04-23 12:41 30.44157 93.86485 36922 ft 470 kts 262°
2026-04-23 12:41 30.42627 93.79194 36965 ft 470 kts 262°
2026-04-23 12:42 30.41069 93.71822 36965 ft 472 kts 262°
2026-04-23 12:42 30.39474 93.64497 36978 ft 470 kts 260°
2026-04-23 12:43 30.37358 93.57275 36981 ft 476 kts 254°
2026-04-23 12:43 30.34664 93.50293 36984 ft 481 kts 251°
2026-04-23 12:44 30.31816 93.43298 36984 ft 478 kts 251°
2026-04-23 12:44 30.28994 93.36365 36971 ft 479 kts 250°
2026-04-23 12:45 30.26155 93.29408 36995 ft 478 kts 250°
2026-04-23 12:45 30.23324 93.22465 36994 ft 479 kts 250°
2026-04-23 12:46 30.20493 93.15544 36947 ft 480 kts 250°
2026-04-23 12:46 30.19073 93.12074 36685 ft 474 kts 250°
2026-04-23 12:46 30.17676 93.08680 36380 ft 465 kts 250°
2026-04-23 12:47 30.16302 93.05341 36096 ft 457 kts 251°
2026-04-23 12:47 30.14953 93.02058 35809 ft 449 kts 251°
2026-04-23 12:47 30.13616 92.98799 35529 ft 450 kts 251°
2026-04-23 12:47 30.12284 92.95553 35245 ft 453 kts 251°
2026-04-23 12:48 30.10922 92.92239 34969 ft 454 kts 251°
2026-04-23 12:48 30.09574 92.88959 34690 ft 455 kts 251°
2026-04-23 12:48 30.08218 92.85664 34415 ft 458 kts 251°
2026-04-23 12:48 30.06849 92.82339 34147 ft 461 kts 251°
2026-04-23 12:49 30.05485 92.79028 33871 ft 462 kts 251°
2026-04-23 12:49 30.04085 92.75642 33601 ft 466 kts 251°
2026-04-23 12:49 30.02698 92.72291 33330 ft 465 kts 251°
2026-04-23 12:49 30.01317 92.68955 33066 ft 466 kts 251°
2026-04-23 12:50 29.99914 92.65565 32793 ft 465 kts 251°
2026-04-23 12:50 29.98540 92.62254 32530 ft 462 kts 251°
2026-04-23 12:50 29.97148 92.58906 32265 ft 461 kts 251°
2026-04-23 12:50 29.95776 92.55603 31999 ft 459 kts 250°
2026-04-23 12:51 29.94402 92.52290 31729 ft 456 kts 250°
2026-04-23 12:51 29.93039 92.49022 31467 ft 454 kts 250°
2026-04-23 12:51 29.91676 92.45750 31199 ft 452 kts 250°
2026-04-23 12:51 29.90327 92.42522 30932 ft 449 kts 250°
2026-04-23 12:52 29.88972 92.39275 30661 ft 447 kts 250°
2026-04-23 12:52 29.87632 92.36059 30396 ft 445 kts 250°
2026-04-23 12:52 29.86302 92.32877 30131 ft 442 kts 249°
2026-04-23 12:52 29.84979 92.29717 29868 ft 439 kts 249°
2026-04-23 12:53 29.83651 92.26549 29602 ft 437 kts 249°
2026-04-23 12:53 29.82331 92.23398 29336 ft 436 kts 249°
2026-04-23 12:53 29.81014 92.20260 29071 ft 434 kts 249°
2026-04-23 12:53 29.79704 92.17141 28809 ft 433 kts 249°
2026-04-23 12:54 29.78415 92.14072 28544 ft 431 kts 249°
2026-04-23 12:54 29.77113 92.10973 28280 ft 430 kts 249°
2026-04-23 12:54 29.75802 92.07863 28014 ft 428 kts 249°
2026-04-23 12:54 29.74512 92.04793 27752 ft 427 kts 248°
2026-04-23 12:55 29.73219 92.01729 27488 ft 425 kts 249°
2026-04-23 12:55 29.71931 91.98673 27221 ft 424 kts 248°
2026-04-23 12:55 29.70659 91.95659 26960 ft 423 kts 248°
2026-04-23 12:55 29.69371 91.92614 26698 ft 420 kts 248°
2026-04-23 12:56 29.68094 91.89601 26434 ft 419 kts 248°
2026-04-23 12:56 29.66825 91.86594 26170 ft 418 kts 248°
2026-04-23 12:56 29.65568 91.83624 25906 ft 417 kts 248°
2026-04-23 12:56 29.64295 91.80626 25643 ft 415 kts 248°
2026-04-23 12:57 29.63035 91.77656 25381 ft 414 kts 248°
2026-04-23 12:57 29.61773 91.74682 25116 ft 413 kts 248°
2026-04-23 12:57 29.60514 91.71722 24853 ft 412 kts 247°
2026-04-23 12:57 29.59264 91.68782 24677 ft 409 kts 247°
2026-04-23 12:58 29.58017 91.65850 24671 ft 410 kts 247°
2026-04-23 12:58 29.56772 91.62923 24667 ft 410 kts 247°
2026-04-23 12:58 29.55528 91.60002 24664 ft 411 kts 247°
2026-04-23 12:58 29.54265 91.57047 24668 ft 410 kts 247°
2026-04-23 12:59 29.53010 91.54105 24663 ft 411 kts 247°
2026-04-23 12:59 29.51751 91.51154 24666 ft 411 kts 247°
2026-04-23 12:59 29.50495 91.48216 24673 ft 410 kts 247°
2026-04-23 12:59 29.49238 91.45282 24671 ft 411 kts 247°
2026-04-23 13:00 29.47985 91.42350 24666 ft 411 kts 247°
2026-04-23 13:00 29.46727 91.39414 24668 ft 411 kts 247°
2026-04-23 13:00 29.45466 91.36476 24670 ft 411 kts 247°
2026-04-23 13:00 29.44218 91.33567 24669 ft 410 kts 246°
2026-04-23 13:01 29.42962 91.30647 24664 ft 397 kts 246°
2026-04-23 13:01 29.41762 91.27863 24664 ft 383 kts 246°
2026-04-23 13:01 29.40605 91.25178 24667 ft 370 kts 247°
2026-04-23 13:01 29.39489 91.22588 24668 ft 357 kts 246°
2026-04-23 13:02 29.38420 91.20111 24669 ft 345 kts 247°
2026-04-23 13:02 29.37380 91.17699 24666 ft 332 kts 247°
2026-04-23 13:02 29.36366 91.15346 24662 ft 320 kts 247°
2026-04-23 13:02 29.35384 91.13065 24669 ft 320 kts 247°
2026-04-23 13:03 29.34414 91.10810 24671 ft 319 kts 247°
2026-04-23 13:03 29.33432 91.08535 24665 ft 320 kts 247°
2026-04-23 13:03 29.32446 91.06249 24667 ft 320 kts 247°
2026-04-23 13:03 29.31434 91.03966 24667 ft 321 kts 242°
2026-04-23 13:04 29.29886 91.02099 24651 ft 330 kts 212°
2026-04-23 13:04 29.27718 91.01266 24577 ft 338 kts 184°
2026-04-23 13:04 29.25413 91.01650 24324 ft 339 kts 155°
2026-04-23 13:04 29.23513 91.03227 24064 ft 335 kts 126°
2026-04-23 13:05 29.22525 91.05552 23808 ft 327 kts 96°
2026-04-23 13:05 29.22626 91.08068 23554 ft 316 kts 66°
2026-04-23 13:05 29.23700 91.10201 23303 ft 308 kts 43°
2026-04-23 13:05 29.25240 91.11858 23058 ft 306 kts 42°
2026-04-23 13:06 29.26788 91.16290 22543 ft 316 kts 94°
2026-04-23 13:06 29.26458 91.18787 22302 ft 317 kts 97°
2026-04-23 13:06 29.26070 91.21264 22057 ft 315 kts 98°
2026-04-23 13:07 29.25669 91.23711 21812 ft 313 kts 98°
2026-04-23 13:07 29.25267 91.26126 21568 ft 312 kts 99°
2026-04-23 13:07 29.24857 91.28570 21311 ft 310 kts 98°
2026-04-23 13:07 29.24453 91.30978 21066 ft 309 kts 99°
2026-04-23 13:08 29.24049 91.33376 20816 ft 307 kts 99°
2026-04-23 13:08 29.23644 91.35781 20570 ft 306 kts 99°
2026-04-23 13:08 29.23291 91.38166 20324 ft 304 kts 89°
2026-04-23 13:08 29.23699 91.40480 20056 ft 295 kts 57°
2026-04-23 13:09 29.25068 91.42141 19798 ft 287 kts 25°
2026-04-23 13:09 29.26944 91.42740 19624 ft 281 kts 357°
2026-04-23 13:09 29.28831 91.42264 19590 ft 277 kts 330°
2026-04-23 13:09 29.30282 91.40895 19590 ft 267 kts 304°
2026-04-23 13:10 29.30972 91.39029 19585 ft 253 kts 277°
2026-04-23 13:10 29.30893 91.37083 19603 ft 237 kts 265°
2026-04-23 13:10 29.30673 91.35232 19375 ft 232 kts 265°
2026-04-23 13:10 29.30524 91.33405 19182 ft 226 kts 268°
2026-04-23 13:11 29.30438 91.31657 19020 ft 214 kts 269°
2026-04-23 13:11 29.30388 91.29962 18882 ft 214 kts 270°
2026-04-23 13:11 29.30354 91.28265 18747 ft 214 kts 271°
2026-04-23 13:11 29.30326 91.26573 18486 ft 214 kts 271°
2026-04-23 13:12 29.30305 91.24873 18179 ft 212 kts 271°
2026-04-23 13:12 29.30283 91.23190 17888 ft 210 kts 271°
2026-04-23 13:12 29.30261 91.21535 17596 ft 204 kts 270°
2026-04-23 13:12 29.30239 91.19941 17320 ft 198 kts 271°
2026-04-23 13:13 29.30224 91.18404 17058 ft 192 kts 271°
2026-04-23 13:13 29.30195 91.16891 16741 ft 189 kts 269°
2026-04-23 13:13 29.30139 91.15407 16420 ft 187 kts 270°
2026-04-23 13:13 29.30089 91.13920 16047 ft 189 kts 270°
2026-04-23 13:14 29.30071 91.12399 15597 ft 193 kts 270°
2026-04-23 13:14 29.30058 91.10835 15080 ft 201 kts 269°
2026-04-23 13:14 29.30039 91.09238 14615 ft 206 kts 269°
2026-04-23 13:14 29.30015 91.07607 14224 ft 205 kts 268°
2026-04-23 13:15 29.29953 91.05962 13882 ft 203 kts 268°
2026-04-23 13:15 29.29932 91.04389 13647 ft 195 kts 271°
2026-04-23 13:15 29.29952 91.02819 13500 ft 205 kts 269°
2026-04-23 13:15 29.29919 91.01148 13467 ft 214 kts 269°
2026-04-23 13:16 29.29911 90.99478 13254 ft 202 kts 269°
2026-04-23 13:16 29.29898 90.97913 12944 ft 198 kts 268°
2026-04-23 13:16 29.29867 90.96353 12649 ft 192 kts 268°
2026-04-23 13:16 29.29850 90.94836 12308 ft 190 kts 267°
2026-04-23 13:17 29.29820 90.93360 12046 ft 183 kts 271°
2026-04-23 13:17 29.29813 90.91951 11941 ft 164 kts 269°
2026-04-23 13:17 29.29794 90.90921 11944 ft 97 kts 273°
2026-04-23 13:17 29.29792 90.90344 11950 ft 60 kts 269°
2026-04-23 13:18 29.29788 90.89919 11948 ft 47 kts 269°
2026-04-23 13:18 29.29783 90.89642 11950 ft 19 kts 259°
2026-04-23 13:18 29.29723 90.89599 11950 ft 9 kts 181°
2026-04-23 13:18 29.29658 90.89598 11950 ft 9 kts 179°
2026-04-23 13:19 29.29594 90.89599 11950 ft 9 kts 179°
2026-04-23 13:19 29.29534 90.89597 11950 ft 6 kts 198°
2026-04-23 13:19 29.29515 90.89553 11950 ft 6 kts 265°
2026-04-23 13:19 29.29513 90.89499 11950 ft 6 kts 269°
2026-04-23 13:20 29.29506 90.89449 11950 ft 5 kts 244°
2026-04-23 13:20 29.29478 90.89429 11951 ft 3 kts 186°
2026-04-23 13:20 29.29455 90.89429 11951 ft 2 kts 181°
2026-04-23 13:20 29.29444 90.89429 11951 ft 0 kts 180°
2026-04-23 13:21 29.29441 90.89429 11951 ft 0 kts 180°
2026-04-23 13:21 29.29435 90.89429 11952 ft 0 kts 180°
2026-04-23 13:22 29.29433 90.89429 11952 ft 0 kts 180°
2026-04-23 13:22 29.29429 90.89429 11952 ft 2 kts 180°
2026-04-23 13:22 29.29398 90.89429 11952 ft 3 kts 179°
2026-04-23 13:22 29.29396 90.89429 11952 ft 0 kts 179°